[[{"header":{"parameterUnit":"m.s-1","parameterCategory":2,"la1":30.2991,"la2":30.254,"lo1":-89.0895,"lo2":-89.0444,"dy":0.0017,"dx":0.0017,"nx":28,"ny":28,"refTime":"2025-07-16T09:00:00:Z","depth":"0","parameterNumber":2,"parameterNumberName":"U-component_of_CURRENTS"},"data":[0,0,0,0,0,0,0,0,0,0,0,0,0,0,0,0,0,0,0,0,0,0,0,0,0,0,0,0,0,0,0,0,0,0,0,0,0,0,0,0,0,0,0,0,0,0,0,0,0,0,0,0,0,0,0,0,0,0,0.327,0.3271,0,0.3316,0.3317,0.3317,0.3328,0.3328,0.3328,0.3328,0.3431,0.3434,0.3437,0,0,0,0,0,0,0,0,0,0,0,0,0,0.3175,0.3177,0.327,0.3271,0.3272,0.3316,0.3317,0.3317,0.3328,0.3328,0.3328,0.3328,0.343,0.3434,0.3437,0,0,0,0,0,0,0,0,0,0,0,0,0,0.3217,0.3177,0.327,0.3284,0.3286,0.3316,0.3317,0.3317,0.3328,0.3328,0.3328,0.3328,0.3429,0.3434,0.3438,0.3469,0,0,0.3451,0.3453,0,0,0,0,0,0,0,0,0.3215,0.322,0.3281,0.3283,0.3285,0.3318,0.3321,0.3372,0.3329,0.3311,0.3328,0.3328,0.34,0.3407,0.3413,0.3474,0.3479,0.3452,0.3454,0.3456,0.3457,0,0,0,0,0,0,0,0.3212,0.3218,0.3287,0.3282,0.3284,0.3282,0.3288,0.333,0.3356,0.3312,0.3313,0.3321,0.3401,0.3408,0.3416,0.348,0.3451,0.3455,0.3458,0.346,0.3588,0.3588,0,0,0,0,0,0,0.3211,0.3216,0.3285,0.3288,0.325,0.3284,0.329,0.3306,0.3354,0.3361,0.3321,0.3321,0.3401,0.341,0.3419,0.3477,0.3456,0.346,0.3463,0.3587,0.3588,0.3589,0,0,0,0,0,0,0.3209,0.3217,0.3284,0.3254,0.3262,0.3286,0.3304,0.3307,0.3314,0.3361,0.3369,0.3324,0.3401,0.3413,0.3454,0.348,0.3462,0.3466,0.3586,0.3587,0.3588,0.3581,0,0,0,0,0,0,0.3206,0.3216,0.3227,0.3254,0.3264,0.3301,0.3304,0.3308,0.332,0.332,0.3366,0.3375,0.3402,0.3447,0.3458,0.3486,0.3469,0.3585,0.3586,0.3588,0.358,0.3582,0.3583,0,0,0,0,0,0.3202,0.3222,0.3228,0.3236,0.3279,0.3301,0.3305,0.332,0.332,0.3324,0.3353,0.3374,0.3465,0.3451,0.3464,0.3494,0.3584,0.3586,0.3588,0.358,0.3581,0.3583,0,0,0,0,0,0,0.3188,0.3226,0.3233,0.3264,0.3279,0.3303,0.3312,0.3319,0.3344,0.3346,0.3382,0.3394,0.344,0.3466,0.345,0.3534,0.3529,0.3534,0.3519,0.3521,0.3523,0.3508,0.3473,0,0,0,0,0,0.319,0.3213,0.3242,0.3262,0.3271,0.3289,0.33,0.3309,0.3334,0.3343,0.3372,0.3412,0.3458,0.3486,0.3523,0.3571,0.3607,0.3599,0.36,0.3601,0.3598,0.3661,0.3668,0.3594,0.3594,0.3594,0,0,0.319,0.3213,0.3226,0.326,0.3272,0.3284,0.3294,0.3311,0.3321,0.3354,0.3377,0.3416,0.3469,0.3518,0.3543,0.3545,0.3646,0.3603,0.3604,0.36,0.3664,0.3671,0.3677,0.3596,0.3595,0.3595,0,0,0.3196,0.3219,0.3238,0.3249,0.3272,0.3282,0.3285,0.3308,0.3319,0.3348,0.3379,0.3425,0.3486,0.3531,0.3563,0.3596,0.3646,0.3617,0.3622,0.3684,0.3691,0.3697,0.3772,0.3785,0.3624,0.3624,0.3624,0,0.3194,0.3221,0.3243,0.3258,0.3264,0.3279,0.3287,0.3304,0.3335,0.3353,0.3353,0.3452,0.3491,0.3569,0.358,0.36,0.3648,0.3611,0.3686,0.3693,0.3699,0.3774,0.3788,0.3624,0.3624,0.3624,0.3624,0,0.3216,0.3228,0.3236,0.3258,0.3266,0.3276,0.3296,0.3309,0.3322,0.3345,0.3407,0.3461,0.3519,0.355,0.3577,0.3653,0.3678,0.3675,0.3679,0.3706,0.3784,0.3799,0.3624,0.3624,0.3624,0.3624,0,0,0.3237,0.325,0.3251,0.3247,0.3265,0.3271,0.329,0.3319,0.3335,0.3376,0.3413,0.3494,0.3521,0.3559,0.3608,0.3668,0.376,0.3692,0.3695,0.3762,0.3918,0.394,0.3959,0.3775,0.3777,0.3779,0.3962,0,0.3245,0.3255,0.3266,0.3262,0.3262,0.3276,0.3289,0.3315,0.3342,0.338,0.3451,0.3505,0.3527,0.3566,0.3627,0.3724,0.3796,0.3712,0.3885,0.3891,0.3903,0.3975,0.3917,0.4075,0.3977,0.3979,0.3981,0,0.3267,0.3265,0.3262,0.3253,0.3257,0.3256,0.3274,0.3292,0.3352,0.338,0.3444,0.3494,0.3598,0.36,0.378,0.3729,0.382,0.3894,0.3902,0.3931,0.394,0.4029,0.4106,0.391,0.4004,0.4002,0.4,0,0.326,0.3262,0.3252,0.325,0.3249,0.325,0.3254,0.3293,0.3309,0.3385,0.3411,0.3526,0.3591,0.3713,0.3856,0.3829,0.4054,0.4034,0.4145,0.4149,0.4136,0.4135,0.4037,0.416,0.416,0.4159,0.4159,0,0.3264,0.3255,0.3242,0.3233,0.3221,0.3231,0.3232,0.3259,0.33,0.3326,0.3408,0.3466,0.3621,0.3758,0.3878,0.407,0.4078,0.4168,0.4202,0.4135,0.4131,0.3989,0.3876,0.4166,0.4165,0.4163,0.4162,0,0.3255,0.3251,0.3232,0.3219,0.3213,0.3203,0.3199,0.3203,0.3251,0.3289,0.3316,0.3447,0.364,0.3807,0.403,0.4105,0.4167,0.4345,0.4264,0.4285,0.418,0.4071,0.3939,0.3847,0.4497,0.4498,0.45,0,0.3249,0.3237,0.321,0.3188,0.3176,0.3161,0.3148,0.3177,0.3181,0.3281,0.3301,0.3491,0.3625,0.3965,0.417,0.4415,0.4232,0.4465,0.4391,0.418,0.4084,0.3884,0.3799,0.4388,0.4388,0.4388,0.4389,0,0.3223,0.3213,0.3191,0.315,0.3122,0.3097,0.3082,0.3077,0.3122,0.3171,0.3271,0.3393,0.3733,0.3953,0.4265,0.4418,0.4217,0.4479,0.4277,0.4008,0.3766,0.3692,0.4261,0.4392,0.4391,0.4391,0.4391,0.4391,0.3195,0.3172,0.3136,0.3097,0.3061,0.3019,0.2976,0.2987,0.3002,0.3046,0.3211,0.3354,0.3676,0.4125,0.4257,0.4356,0.4264,0.4265,0.4166,0.3992,0.3829,0.441,0.4557,0.4558,0.4559,0.4559,0.4559,0,0.3144,0.3119,0.3081,0.3014,0.2947,0.2956,0.2913,0.2859,0.2853,0.2965,0.3065,0.3328,0.3603,0.3867,0.4095,0.4003,0.3907,0.3893,0.3561,0.351,0.4068,0.3986,0.3992,0.3992,0.3993,0.3993,0.3993,0.3993,0.3112,0.3061,0.3042,0.2916,0.2862,0.2745,0.2705,0.2658,0.2689,0.2734,0.2831,0.2979,0.3244,0.3472,0.3517,0.3544,0.3232,0.3174,0.307,0.341,0.3434,0.3457,0.335,0.3222,0.3221,0.2452,0.2445,0.244]},{"header":{"parameterUnit":"m.s-1","parameterCategory":2,"la1":30.2991,"la2":30.254,"lo1":-89.0895,"lo2":-89.0444,"dy":0.0017,"dx":0.0017,"nx":28,"ny":28,"refTime":"2025-07-16T09:00:00:Z","depth":"0","parameterNumber":3,"parameterNumberName":"V-component_of_CURRENTS"},"data":[0,0,0,0,0,0,0,0,0,0,0,0,0,0,0,0,0,0,0,0,0,0,0,0,0,0,0,0,0,0,0,0,0,0,0,0,0,0,0,0,0,0,0,0,0,0,0,0,0,0,0,0,0,0,0,0,0,0,-0.059,-0.059,0,-0.0575,-0.0575,-0.0574,-0.0598,-0.0599,-0.0599,-0.06,-0.0663,-0.0664,-0.0665,0,0,0,0,0,0,0,0,0,0,0,0,0,-0.0644,-0.0642,-0.059,-0.059,-0.0589,-0.0575,-0.0575,-0.0574,-0.0598,-0.0599,-0.06,-0.0601,-0.0663,-0.0664,-0.0665,0,0,0,0,0,0,0,0,0,0,0,0,0,-0.0623,-0.0642,-0.059,-0.06,-0.06,-0.0575,-0.0575,-0.0574,-0.0597,-0.0599,-0.06,-0.0601,-0.0662,-0.0664,-0.0665,-0.0647,0,0,-0.0669,-0.0669,0,0,0,0,0,0,0,0,-0.0624,-0.0621,-0.0598,-0.0599,-0.06,-0.059,-0.0617,-0.0603,-0.0597,-0.0598,-0.06,-0.0602,-0.0645,-0.0648,-0.064,-0.065,-0.0653,-0.0669,-0.067,-0.067,-0.0671,0,0,0,0,0,0,0,-0.0626,-0.0622,-0.0583,-0.0598,-0.0599,-0.0607,-0.0605,-0.0614,-0.0615,-0.0598,-0.06,-0.0599,-0.0646,-0.0639,-0.0642,-0.0654,-0.0669,-0.067,-0.0671,-0.0671,-0.0637,-0.0635,0,0,0,0,0,0,-0.0626,-0.0623,-0.0584,-0.0583,-0.0616,-0.0605,-0.0603,-0.0591,-0.0614,-0.0618,-0.0598,-0.06,-0.0636,-0.0641,-0.0645,-0.0604,-0.067,-0.0671,-0.0672,-0.0638,-0.0636,-0.0635,0,0,0,0,0,0,-0.0627,-0.0623,-0.0584,-0.0604,-0.06,-0.0603,-0.0589,-0.059,-0.0586,-0.0613,-0.0619,-0.0593,-0.0637,-0.0643,-0.064,-0.0608,-0.0672,-0.0673,-0.064,-0.0638,-0.0635,-0.0536,0,0,0,0,0,0,-0.0629,-0.0623,-0.0609,-0.0603,-0.0599,-0.0557,-0.0588,-0.0589,-0.0584,-0.0587,-0.0611,-0.0617,-0.0639,-0.0637,-0.0641,-0.0611,-0.0674,-0.0643,-0.0639,-0.0636,-0.0542,-0.0531,-0.0521,0,0,0,0,0,-0.0631,-0.0599,-0.0608,-0.0603,-0.0581,-0.0556,-0.0553,-0.056,-0.0582,-0.0565,-0.0583,-0.0617,-0.062,-0.0637,-0.0642,-0.0611,-0.0644,-0.064,-0.0636,-0.0546,-0.0533,-0.0522,0,0,0,0,0,0,-0.0603,-0.0599,-0.0608,-0.0574,-0.0564,-0.056,-0.0541,-0.0555,-0.0553,-0.0561,-0.0596,-0.0602,-0.0588,-0.0611,-0.0629,-0.0591,-0.0637,-0.0634,-0.0567,-0.0555,-0.0545,-0.0532,-0.0675,0,0,0,0,0,-0.0594,-0.0573,-0.0572,-0.0541,-0.0537,-0.0542,-0.0533,-0.0539,-0.054,-0.0541,-0.0558,-0.0573,-0.0572,-0.0575,-0.0581,-0.056,-0.0583,-0.0543,-0.0533,-0.0524,-0.0516,-0.0518,-0.0507,-0.0622,-0.0622,-0.0622,0,0,-0.0572,-0.0568,-0.0554,-0.0535,-0.0529,-0.05,-0.0538,-0.0517,-0.0492,-0.0548,-0.052,-0.0541,-0.0559,-0.0532,-0.0528,-0.055,-0.0501,-0.0519,-0.0511,-0.0508,-0.0513,-0.0502,-0.0492,-0.0619,-0.062,-0.062,0,0,-0.0517,-0.0517,-0.0485,-0.0474,-0.0465,-0.0464,-0.0459,-0.0455,-0.0452,-0.0432,-0.0461,-0.0458,-0.0465,-0.046,-0.0462,-0.0399,-0.0448,-0.0406,-0.0342,-0.0343,-0.0334,-0.0326,-0.0331,-0.0325,-0.0399,-0.0398,-0.0398,0,-0.0492,-0.0454,-0.0468,-0.0436,-0.042,-0.0446,-0.0406,-0.0397,-0.0391,-0.0381,-0.0412,-0.0403,-0.0424,-0.0382,-0.036,-0.0375,-0.0391,-0.0387,-0.033,-0.0323,-0.0316,-0.0324,-0.0318,-0.0393,-0.0394,-0.0394,-0.0395,0,-0.0421,-0.0389,-0.0366,-0.0338,-0.0319,-0.0288,-0.0286,-0.0269,-0.0283,-0.0281,-0.0257,-0.028,-0.028,-0.0277,-0.0301,-0.0256,-0.0287,-0.0319,-0.0361,-0.0299,-0.0311,-0.0306,-0.0386,-0.0387,-0.0389,-0.039,0,0,-0.0367,-0.0326,-0.0317,-0.0293,-0.0269,-0.0246,-0.02,-0.0167,-0.014,-0.0145,-0.011,-0.0107,-0.0141,-0.0145,-0.0173,-0.0167,-0.0136,-0.0219,-0.0222,-0.0225,-0.0142,-0.0149,-0.0146,-0.0163,-0.0162,-0.0161,-0.0166,0,-0.0307,-0.0239,-0.023,-0.0156,-0.0122,-0.0125,-0.0079,-0.0056,-0.0052,-0.0025,-0.0046,-0.0033,-0.0083,-0.009,-0.0087,-0.0126,-0.0121,-0.0132,-0.0203,-0.0204,-0.0218,-0.0139,-0.0103,-0.0103,-0.0162,-0.0161,-0.0161,0,-0.0241,-0.0206,-0.0134,-0.0077,-0.0062,-0.0022,0.0029,0.0066,0.0095,0.0093,0.0098,0.0067,0.0079,0.0015,-0.0009,-0.0017,-0.0069,-0.0102,-0.0104,-0.0142,-0.0202,-0.0177,-0.0093,-0.0209,-0.0155,-0.0155,-0.0156,0,-0.021,-0.0136,-0.0081,-0.0061,-0.0002,0.0032,0.0061,0.0101,0.0134,0.0158,0.0175,0.0169,0.0161,0.011,0.0037,0.0009,0.0006,-0.0048,-0.0098,-0.01,-0.0098,-0.0101,-0.0134,-0.0063,-0.0063,-0.0063,-0.0063,0,-0.0154,-0.0106,-0.0065,-0.0034,0.0033,0.0062,0.0131,0.0156,0.0201,0.0253,0.0226,0.0264,0.0182,0.0163,0.0082,0.0021,0.0036,-0.0065,-0.009,-0.0062,-0.0061,-0.0189,-0.0282,-0.0063,-0.0063,-0.0063,-0.0063,0,-0.0127,-0.0097,-0.0034,0.0028,0.0049,0.0091,0.0161,0.0209,0.0245,0.0311,0.0318,0.0336,0.0322,0.0245,0.0174,0.0083,-0.0036,-0.0015,0.0026,0.0005,-0.0163,-0.0252,-0.0309,-0.0338,-0.0069,-0.0069,-0.0069,0,-0.0108,-0.0073,-0.0008,0.0026,0.0055,0.0116,0.0163,0.0217,0.0269,0.0364,0.0403,0.0419,0.0462,0.0369,0.0226,0.0107,-0.0015,0.0022,-0.0024,-0.0142,-0.0261,-0.0308,-0.0332,0.0018,0.0018,0.0019,0.0019,0,-0.0078,-0.006,-0.002,0.0046,0.0098,0.0168,0.0239,0.0293,0.0372,0.0453,0.0568,0.0621,0.0548,0.0488,0.0312,0.0196,-0.0048,0.0027,-0.0098,-0.0187,-0.0236,-0.0287,-0.0022,0.0024,0.0024,0.0024,0.0023,0.0023,-0.0071,-0.0042,0.0007,0.0069,0.0133,0.0228,0.0305,0.0404,0.0527,0.0705,0.0714,0.0872,0.0731,0.0524,0.0325,0.0001,-0.0024,-0.0101,-0.0196,-0.0229,-0.0263,0.0013,0.0027,0.0026,0.0026,0.0026,0.0025,0,-0.0062,-0.0025,0.0032,0.0119,0.0197,0.0233,0.0365,0.0476,0.0655,0.085,0.0989,0.1072,0.0866,0.0596,0.0159,-0.0144,-0.0246,-0.0314,-0.0375,-0.0387,-0.0134,-0.0136,-0.0153,-0.0153,-0.0153,-0.0153,-0.0152,-0.0152,-0.0052,-0.0006,0.0028,0.0156,0.0228,0.0365,0.0458,0.0643,0.082,0.1121,0.1302,0.1401,0.122,0.0384,-0.0203,-0.0361,-0.0568,-0.0624,-0.0723,-0.0576,-0.0563,-0.0551,-0.0572,-0.068,-0.068,-0.0893,-0.0896,-0.0898]}],[{"header":{"parameterUnit":"m.s-1","parameterCategory":2,"la1":30.2991,"la2":30.254,"lo1":-89.0895,"lo2":-89.0444,"dy":0.0017,"dx":0.0017,"nx":28,"ny":28,"refTime":"2025-07-16T09:00:00:Z","depth":"2","parameterNumber":2,"parameterNumberName":"U-component_of_CURRENTS"},"data":[0,0,0,0,0,0,0,0,0,0,0,0,0,0,0,0,0,0,0,0,0,0,0,0,0,0,0,0,0,0,0,0,0,0,0,0,0,0,0,0,0,0,0,0,0,0,0,0,0,0,0,0,0,0,0,0,0,0,0.1211,0.1211,0,0.1226,0.1227,0.1227,0.1256,0.1256,0.1257,0.1257,0.133,0.1332,0.1333,0,0,0,0,0,0,0,0,0,0,0,0,0,0.1221,0.1221,0.1211,0.1211,0.1211,0.1226,0.1227,0.1227,0.1256,0.1256,0.1257,0.1257,0.133,0.1332,0.1333,0,0,0,0,0,0,0,0,0,0,0,0,0,0.1225,0.122,0.1211,0.1227,0.1228,0.1226,0.1227,0.1227,0.1255,0.1256,0.1257,0.1258,0.1329,0.1331,0.1334,0.1332,0,0,0.134,0.1341,0,0,0,0,0,0,0,0,0.1225,0.1225,0.1224,0.1226,0.1227,0.1239,0.1257,0.1265,0.1255,0.1246,0.1257,0.1258,0.1304,0.1309,0.131,0.1336,0.1339,0.1341,0.1342,0.1343,0.1344,0,0,0,0,0,0,0,0.1224,0.1224,0.1218,0.1224,0.1226,0.1238,0.124,0.1259,0.1272,0.1247,0.1249,0.1249,0.1306,0.1308,0.1312,0.134,0.1341,0.1343,0.1344,0.1345,0.1484,0.1486,0,0,0,0,0,0,0.122,0.1224,0.1217,0.1218,0.1227,0.1238,0.1239,0.1235,0.1271,0.1276,0.1249,0.125,0.1303,0.1309,0.1315,0.1421,0.1343,0.1345,0.1346,0.1482,0.1485,0.1487,0,0,0,0,0,0,0.122,0.1219,0.1216,0.1221,0.1222,0.1236,0.1232,0.1235,0.1264,0.1271,0.1278,0.1277,0.1304,0.1312,0.1371,0.142,0.1346,0.1348,0.1479,0.1483,0.1486,0.1566,0,0,0,0,0,0,0.122,0.1218,0.1229,0.1221,0.1221,0.1238,0.1231,0.1235,0.1261,0.1265,0.1298,0.1304,0.1305,0.1368,0.1374,0.1422,0.135,0.1476,0.1481,0.1485,0.1561,0.1572,0.1582,0,0,0,0,0,0.122,0.1227,0.1229,0.1229,0.123,0.1239,0.1241,0.1254,0.1262,0.1282,0.1316,0.1304,0.14,0.1372,0.1378,0.1428,0.1474,0.1479,0.1484,0.1556,0.157,0.1582,0,0,0,0,0,0,0.1246,0.123,0.1233,0.1238,0.1249,0.1244,0.1264,0.127,0.1308,0.1324,0.1331,0.134,0.1412,0.1409,0.1377,0.1482,0.1436,0.1443,0.1489,0.1502,0.1512,0.1536,0.1352,0,0,0,0,0,0.1253,0.1253,0.1247,0.1258,0.1264,0.127,0.128,0.129,0.1312,0.133,0.1354,0.139,0.1433,0.1459,0.1488,0.1542,0.1573,0.1579,0.159,0.1599,0.1624,0.1713,0.1735,0.1505,0.1505,0.1505,0,0,0.1268,0.126,0.1263,0.1264,0.1274,0.1293,0.128,0.1306,0.134,0.1333,0.1402,0.1428,0.1456,0.1523,0.1554,0.153,0.1683,0.1606,0.1613,0.1634,0.1721,0.1744,0.1764,0.1508,0.1508,0.1507,0,0,0.1292,0.1292,0.13,0.131,0.1325,0.133,0.1344,0.1359,0.1389,0.1447,0.1462,0.1525,0.1573,0.1612,0.1636,0.1723,0.1736,0.173,0.1806,0.1892,0.1912,0.193,0.2004,0.2028,0.1736,0.1736,0.1736,0,0.1321,0.1318,0.131,0.1325,0.1342,0.1351,0.1379,0.1408,0.1448,0.149,0.1485,0.1605,0.1621,0.1721,0.1756,0.1749,0.1798,0.1751,0.1908,0.1926,0.1943,0.2014,0.2039,0.1741,0.174,0.174,0.1739,0,0.1342,0.1354,0.1364,0.1382,0.1405,0.143,0.146,0.1508,0.1544,0.1577,0.1688,0.1724,0.1802,0.1814,0.1815,0.1946,0.1943,0.191,0.1874,0.1971,0.2039,0.2064,0.1747,0.1745,0.1744,0.1743,0,0,0.138,0.1378,0.1389,0.1399,0.1437,0.1453,0.153,0.1596,0.1659,0.1725,0.1822,0.1906,0.1941,0.1971,0.1987,0.206,0.2215,0.2047,0.205,0.212,0.2419,0.2238,0.2247,0.2217,0.2221,0.2225,0.2421,0,0.1409,0.1422,0.1431,0.1477,0.1486,0.1531,0.1596,0.1667,0.1735,0.1832,0.1912,0.2003,0.1996,0.2047,0.213,0.2193,0.2285,0.2166,0.2316,0.2321,0.2147,0.2271,0.2039,0.2178,0.2445,0.2449,0.2452,0,0.1433,0.1433,0.1466,0.1502,0.1518,0.1569,0.1677,0.1737,0.1874,0.1935,0.2057,0.2112,0.2258,0.2218,0.2419,0.235,0.2411,0.2447,0.2455,0.2277,0.2186,0.2124,0.2212,0.2493,0.249,0.2487,0.2484,0,0.1432,0.1465,0.1487,0.1501,0.155,0.1611,0.1666,0.1786,0.1844,0.202,0.2086,0.2256,0.2344,0.2469,0.2565,0.2515,0.2765,0.2693,0.2595,0.2582,0.2408,0.237,0.2851,0.2851,0.2851,0.285,0.2849,0,0.1436,0.146,0.1494,0.1504,0.1561,0.1617,0.1715,0.1795,0.1926,0.2012,0.2146,0.2247,0.2414,0.2558,0.2638,0.2705,0.2838,0.2646,0.2633,0.2425,0.2388,0.2667,0.2643,0.2857,0.2856,0.2854,0.2853,0,0.1416,0.1439,0.1459,0.1521,0.1553,0.1599,0.1709,0.1771,0.1907,0.2032,0.2093,0.2281,0.2479,0.2628,0.2832,0.2762,0.2861,0.2852,0.2587,0.2535,0.2602,0.2581,0.2754,0.275,0.2746,0.2743,0.274,0,0.1392,0.1398,0.1453,0.147,0.1505,0.1582,0.1633,0.1758,0.1821,0.2042,0.2093,0.2324,0.2465,0.268,0.2636,0.2735,0.2878,0.2532,0.2359,0.2629,0.26,0.2584,0.2568,0.2189,0.2182,0.2176,0.2172,0,0.1333,0.1367,0.1373,0.1414,0.1466,0.1513,0.1604,0.1651,0.1813,0.1924,0.2112,0.2253,0.2394,0.2364,0.2417,0.2428,0.2483,0.2406,0.2838,0.2199,0.2098,0.2067,0.2071,0.2121,0.2126,0.213,0.2133,0.2135,0.1285,0.128,0.1303,0.1355,0.1401,0.1464,0.1528,0.1613,0.1722,0.19,0.2033,0.2136,0.2047,0.1981,0.2004,0.2015,0.2129,0.2047,0.2066,0.2091,0.194,0.1831,0.1779,0.1782,0.1785,0.1787,0.1789,0,0.1222,0.124,0.1248,0.1303,0.1352,0.1437,0.1516,0.1575,0.171,0.1784,0.1936,0.1642,0.1603,0.1669,0.1542,0.1473,0.1479,0.1501,0.1514,0.1561,0.1604,0.143,0.1135,0.1134,0.1133,0.1132,0,0,0.118,0.1177,0.1199,0.1263,0.135,0.1438,0.1521,0.1579,0.16,0.1604,0.1566,0.156,0.1516,0.1227,0.1198,0.1216,0.1406,0.1181,0.169,0.1752,0.1795,0.1882,0.1661,0,0,0,0,0]},{"header":{"parameterUnit":"m.s-1","parameterCategory":2,"la1":30.2991,"la2":30.254,"lo1":-89.0895,"lo2":-89.0444,"dy":0.0017,"dx":0.0017,"nx":28,"ny":28,"refTime":"2025-07-16T09:00:00:Z","depth":"2","parameterNumber":3,"parameterNumberName":"V-component_of_CURRENTS"},"data":[0,0,0,0,0,0,0,0,0,0,0,0,0,0,0,0,0,0,0,0,0,0,0,0,0,0,0,0,0,0,0,0,0,0,0,0,0,0,0,0,0,0,0,0,0,0,0,0,0,0,0,0,0,0,0,0,0,0,0.0526,0.0527,0,0.0536,0.0536,0.0536,0.051,0.0509,0.0508,0.0508,0.0351,0.0348,0.0344,0,0,0,0,0,0,0,0,0,0,0,0,0,0.0468,0.0469,0.0526,0.0527,0.0527,0.0536,0.0536,0.0536,0.051,0.0509,0.0508,0.0507,0.0352,0.0348,0.0344,0,0,0,0,0,0,0,0,0,0,0,0,0,0.0486,0.047,0.0526,0.0516,0.0515,0.0536,0.0536,0.0536,0.051,0.0509,0.0508,0.0507,0.0354,0.0349,0.0343,0.0332,0,0,0.0327,0.0325,0,0,0,0,0,0,0,0,0.0485,0.0488,0.0517,0.0517,0.0516,0.0522,0.0458,0.046,0.051,0.051,0.0508,0.0506,0.0394,0.0386,0.039,0.0324,0.0318,0.0327,0.0324,0.0321,0.032,0,0,0,0,0,0,0,0.0484,0.0487,0.0529,0.0518,0.0517,0.0505,0.0506,0.0459,0.0454,0.051,0.0509,0.0512,0.0392,0.0396,0.0386,0.0315,0.0327,0.0322,0.0319,0.0317,0.0185,0.0185,0,0,0,0,0,0,0.0488,0.0487,0.0528,0.0529,0.0499,0.0507,0.0508,0.052,0.0458,0.045,0.0513,0.0511,0.0405,0.0392,0.038,0.0335,0.0321,0.0316,0.0313,0.0185,0.0185,0.0184,0,0,0,0,0,0,0.0487,0.0492,0.0528,0.0508,0.0512,0.0509,0.0522,0.0521,0.0505,0.0462,0.045,0.0497,0.0404,0.0387,0.0342,0.0329,0.0314,0.0309,0.0186,0.0185,0.0185,0.0261,0,0,0,0,0,0,0.0485,0.0491,0.0488,0.0509,0.0514,0.0531,0.0523,0.0522,0.0511,0.0507,0.0445,0.0431,0.0402,0.0351,0.0337,0.0321,0.0305,0.0186,0.0185,0.0185,0.0259,0.0263,0.0266,0,0,0,0,0,0.0483,0.0488,0.0488,0.0493,0.0514,0.0531,0.0532,0.0525,0.0511,0.0506,0.0475,0.0432,0.0336,0.0347,0.0331,0.0313,0.0186,0.0186,0.0185,0.0257,0.0262,0.0266,0,0,0,0,0,0,0.0456,0.0487,0.0487,0.0499,0.0509,0.0527,0.0518,0.0517,0.0492,0.0475,0.0435,0.042,0.0376,0.0332,0.0345,0.0272,0.025,0.0246,0.031,0.0314,0.0318,0.0329,0.0301,0,0,0,0,0,0.0453,0.0464,0.0488,0.0494,0.0497,0.0504,0.0504,0.0502,0.0491,0.0479,0.0444,0.0396,0.0365,0.033,0.0294,0.025,0.0215,0.0224,0.0228,0.0232,0.023,0.0178,0.0178,0.0182,0.0182,0.0182,0,0,0.0442,0.046,0.0465,0.0488,0.0491,0.0505,0.05,0.0498,0.0504,0.0462,0.0441,0.0409,0.0359,0.0327,0.03,0.0283,0.0216,0.0231,0.0235,0.023,0.0178,0.0177,0.0177,0.0181,0.0181,0.0182,0,0,0.0437,0.0444,0.0453,0.0465,0.0474,0.0486,0.0483,0.0492,0.0485,0.0471,0.0448,0.0416,0.0354,0.0332,0.031,0.0305,0.0246,0.0277,0.0295,0.0247,0.0246,0.0245,0.022,0.0217,0.027,0.027,0.027,0,0.0416,0.0444,0.0454,0.0469,0.0482,0.0479,0.0494,0.0493,0.0486,0.0486,0.0463,0.0407,0.0361,0.034,0.0341,0.0314,0.0282,0.0288,0.0254,0.0252,0.025,0.0224,0.0219,0.0274,0.0273,0.0273,0.0273,0,0.0428,0.0444,0.0448,0.0474,0.0487,0.0495,0.0509,0.0508,0.0497,0.05,0.0475,0.0432,0.0398,0.0376,0.0355,0.032,0.0303,0.0276,0.0249,0.0254,0.0226,0.022,0.0279,0.0277,0.0276,0.0276,0,0,0.0395,0.0447,0.0446,0.0472,0.0492,0.0512,0.052,0.0542,0.0558,0.0523,0.054,0.048,0.0455,0.0427,0.0392,0.0346,0.031,0.0302,0.0298,0.0291,0.0214,0.0222,0.0215,0.0274,0.0273,0.0272,0.0209,0,0.0396,0.0439,0.0462,0.05,0.0528,0.0542,0.0564,0.0577,0.0579,0.0591,0.0542,0.0531,0.0474,0.0459,0.0406,0.0347,0.0292,0.0331,0.0198,0.0194,0.021,0.0207,0.0159,0.01,0.0202,0.0201,0.02,0,0.0396,0.0435,0.0473,0.0544,0.0556,0.057,0.0618,0.0637,0.065,0.065,0.0624,0.0597,0.0545,0.0487,0.0367,0.0393,0.0299,0.0241,0.0236,0.0209,0.0188,0.0104,0.0083,0.0189,0.019,0.019,0.0191,0,0.0387,0.0444,0.0482,0.05,0.0569,0.0583,0.061,0.064,0.0676,0.0677,0.0701,0.0636,0.0609,0.0488,0.0376,0.0359,0.0249,0.0209,0.0125,0.0126,0.0041,0.0036,0.0094,0.0094,0.0094,0.0094,0.0094,0,0.0394,0.0425,0.0476,0.05,0.0553,0.0586,0.0636,0.0661,0.0702,0.0757,0.0717,0.0752,0.0601,0.0537,0.0405,0.0266,0.0262,0.0129,0.0104,0.0068,0.0067,0.0102,0.0104,0.0092,0.0092,0.0093,0.0093,0,0.0391,0.0416,0.0473,0.0535,0.055,0.0585,0.066,0.0715,0.0736,0.0807,0.0809,0.0821,0.0745,0.0607,0.0436,0.0313,0.0175,0.0115,0.0104,0.0079,0.0074,0.008,0.0008,0.0008,0.0008,0.0007,0.0007,0,0.0404,0.0428,0.0494,0.0532,0.0557,0.061,0.0665,0.0714,0.0781,0.0867,0.0916,0.088,0.09,0.0687,0.0427,0.0199,0.0189,0.0022,-0.0032,0.0079,0.0062,0.0069,0.0076,-0.0113,-0.0114,-0.0115,-0.0116,0,0.0449,0.0454,0.0511,0.0574,0.0626,0.0703,0.0774,0.083,0.0907,0.0996,0.111,0.1137,0.0922,0.0687,0.0372,0.022,0.0059,-0.0004,0.0093,-0.0067,-0.0037,-0.0052,-0.0042,-0.0125,-0.0124,-0.0123,-0.0123,-0.0123,0.0484,0.0527,0.0583,0.0642,0.0698,0.078,0.0851,0.0963,0.109,0.1217,0.1248,0.124,0.0876,0.0446,0.0227,-0.0006,-0.0,-0.0117,-0.0114,-0.0111,-0.0097,-0.0067,-0.0157,-0.0157,-0.0156,-0.0156,-0.0155,0,0.0544,0.0581,0.0655,0.0726,0.0787,0.0791,0.0924,0.1025,0.1188,0.1265,0.1372,0.1012,0.0739,0.041,0.0024,-0.0188,-0.0207,-0.0219,-0.0233,-0.0225,-0.0218,-0.0209,-0.0299,-0.03,-0.03,-0.03,0,0,0.0585,0.0657,0.0689,0.0784,0.0811,0.0897,0.0962,0.1138,0.1217,0.1322,0.1257,0.1124,0.0679,0.0331,0.0044,-0.0103,-0.0091,-0.012,0.0004,0.0028,0.004,-0.0166,-0.0143,0,0,0,0,0]}],[{"header":{"parameterUnit":"m.s-1","parameterCategory":2,"la1":30.2991,"la2":30.254,"lo1":-89.0895,"lo2":-89.0444,"dy":0.0017,"dx":0.0017,"nx":28,"ny":28,"refTime":"2025-07-16T09:00:00:Z","depth":"4","parameterNumber":2,"parameterNumberName":"U-component_of_CURRENTS"},"data":[0,0,0,0,0,0,0,0,0,0,0,0,0,0,0,0,0,0,0,0,0,0,0,0,0,0,0,0,0,0,0,0,0,0,0,0,0,0,0,0,0,0,0,0,0,0,0,0,0,0,0,0,0,0,0,0,0,0,0.0156,0.0157,0,0.0197,0.0197,0.0198,0.0212,0.0212,0.0212,0.0213,0.0166,0.0165,0.0163,0,0,0,0,0,0,0,0,0,0,0,0,0,0.0042,0.0044,0.0156,0.0157,0.0158,0.0197,0.0197,0.0198,0.0212,0.0212,0.0212,0.0213,0.0167,0.0165,0.0163,0,0,0,0,0,0,0,0,0,0,0,0,0,0.0083,0.0044,0.0155,0.0174,0.0176,0.0197,0.0197,0.0198,0.0212,0.0212,0.0213,0.0213,0.0167,0.0165,0.0163,0.0138,0,0,0.0156,0.0155,0,0,0,0,0,0,0,0,0.0081,0.0087,0.017,0.0172,0.0175,0.0205,0.0141,0.0175,0.0211,0.0192,0.0213,0.0213,0.0174,0.0171,0.0171,0.0136,0.0134,0.0155,0.0154,0.0153,0.0152,0,0,0,0,0,0,0,0.0078,0.0085,0.0167,0.0171,0.0174,0.0164,0.017,0.0147,0.0174,0.0194,0.0196,0.021,0.0174,0.0174,0.017,0.0134,0.0156,0.0153,0.0152,0.0151,0.0083,0.0082,0,0,0,0,0,0,0.0086,0.0082,0.0165,0.0168,0.0134,0.0166,0.0173,0.019,0.0176,0.0177,0.0209,0.021,0.0177,0.0173,0.0169,0.0156,0.0153,0.0151,0.015,0.0083,0.0082,0.0082,0,0,0,0,0,0,0.0083,0.0093,0.0164,0.013,0.0139,0.0169,0.0187,0.0191,0.021,0.019,0.0188,0.0227,0.0178,0.0172,0.0154,0.0154,0.015,0.0148,0.0083,0.0083,0.0082,0.012,0,0,0,0,0,0,0.008,0.0092,0.0113,0.0131,0.0142,0.0189,0.0188,0.0192,0.0219,0.0221,0.0204,0.0199,0.0178,0.0158,0.0152,0.0151,0.0146,0.0084,0.0083,0.0082,0.0119,0.0121,0.0122,0,0,0,0,0,0.0076,0.01,0.0114,0.0125,0.0168,0.019,0.0194,0.0212,0.0219,0.0229,0.0212,0.0201,0.0149,0.0156,0.0149,0.0147,0.0084,0.0083,0.0082,0.0119,0.0121,0.0122,0,0,0,0,0,0,0.006,0.0105,0.012,0.0157,0.018,0.0195,0.0215,0.0223,0.0219,0.0223,0.0197,0.0191,0.0174,0.0153,0.0162,0.0123,0.0114,0.0111,0.0144,0.0145,0.0146,0.0171,0.0144,0,0,0,0,0,0.0069,0.01,0.0133,0.0163,0.018,0.02,0.0215,0.0227,0.0227,0.0229,0.0216,0.0192,0.0161,0.015,0.0124,0.0105,0.0097,0.0097,0.0099,0.01,0.0114,0.0086,0.0087,0.0079,0.0079,0.0079,0,0,0.0069,0.0102,0.0118,0.0163,0.0184,0.0208,0.0209,0.024,0.0252,0.022,0.0229,0.0199,0.0157,0.0134,0.0125,0.012,0.01,0.0099,0.01,0.0114,0.0086,0.0087,0.0087,0.0078,0.0078,0.0078,0,0,0.008,0.0119,0.0146,0.0172,0.0216,0.0226,0.024,0.0263,0.0269,0.0269,0.0242,0.0216,0.0184,0.015,0.0127,0.0119,0.0109,0.0109,0.0137,0.011,0.0111,0.0111,0.0118,0.0119,0.011,0.011,0.011,0,0.0081,0.0128,0.0155,0.0188,0.0219,0.0237,0.0268,0.0271,0.0282,0.0283,0.0278,0.0223,0.0189,0.0149,0.0146,0.0123,0.0121,0.0136,0.0113,0.0114,0.0114,0.012,0.0121,0.0111,0.0111,0.0111,0.0111,0,0.0105,0.0153,0.0174,0.0225,0.0251,0.0285,0.0302,0.0316,0.0325,0.0322,0.03,0.0251,0.0224,0.0196,0.017,0.0147,0.0151,0.012,0.0115,0.0117,0.0124,0.0124,0.0114,0.0113,0.0113,0.0112,0,0,0.0083,0.0174,0.0187,0.0229,0.0281,0.0307,0.0326,0.0348,0.0363,0.0348,0.0353,0.029,0.0277,0.0249,0.0206,0.0176,0.0173,0.0158,0.0156,0.0177,0.0144,0.016,0.0162,0.014,0.014,0.014,0.0154,0,0.0101,0.018,0.0214,0.0283,0.0328,0.0356,0.0375,0.0391,0.0393,0.0396,0.0344,0.0333,0.0291,0.0283,0.0245,0.0186,0.0173,0.0174,0.0129,0.0128,0.0151,0.0162,0.0139,0.0154,0.0154,0.0154,0.0154,0,0.0112,0.0173,0.0254,0.0338,0.0359,0.0397,0.0447,0.0464,0.046,0.046,0.0437,0.0405,0.0363,0.0327,0.025,0.0257,0.0218,0.0171,0.017,0.0175,0.0144,0.0145,0.0154,0.0154,0.0154,0.0154,0.0154,0,0.0097,0.0197,0.0273,0.0305,0.0393,0.0432,0.0471,0.049,0.0509,0.0512,0.0522,0.0465,0.0449,0.0378,0.0287,0.028,0.0201,0.0174,0.0158,0.016,0.0124,0.0123,0.0137,0.0137,0.0137,0.0137,0.0137,0,0.0102,0.016,0.0285,0.033,0.0411,0.0462,0.0525,0.0548,0.0575,0.0577,0.0567,0.0514,0.0462,0.0399,0.0315,0.0241,0.0228,0.018,0.0163,0.0141,0.0142,0.0126,0.0124,0.0137,0.0137,0.0137,0.0137,0,0.0068,0.0151,0.0246,0.0371,0.0414,0.0475,0.0576,0.0601,0.0641,0.0643,0.0652,0.0584,0.0493,0.0441,0.0323,0.0294,0.0205,0.0182,0.0195,0.0175,0.0186,0.0186,0.0194,0.0194,0.0195,0.0195,0.0196,0,0.0058,0.0111,0.0276,0.034,0.0408,0.0507,0.0558,0.0626,0.0637,0.0625,0.0597,0.0555,0.0492,0.0366,0.0282,0.0212,0.0184,0.0205,0.0179,0.0208,0.0191,0.019,0.0189,0.0197,0.0197,0.0197,0.0197,0,0.0032,0.0105,0.0187,0.0327,0.0419,0.0499,0.0571,0.057,0.0606,0.0666,0.0565,0.0515,0.0425,0.0318,0.0315,0.0217,0.0227,0.021,0.0208,0.0184,0.0212,0.0193,0.0192,0.0199,0.0199,0.0199,0.0199,0,0.0014,0.0064,0.0185,0.0303,0.0412,0.0452,0.049,0.0508,0.0537,0.055,0.0472,0.0398,0.038,0.0312,0.0231,0.0234,0.0221,0.0244,0.024,0.0237,0.024,0.0281,0.0287,0,0,0,0,0,0.0001,0.0054,0.0148,0.0276,0.0377,0.0431,0.0482,0.05,0.0523,0.0476,0.0504,0.0407,0.0338,0.0246,0.0251,0.0206,0.0198,0.0211,0.0217,0.021,0.0208,0.0204,0,0,0,0,0,0,-0.0007,0.0072,0.0128,0.023,0.0297,0.0382,0.0396,0.0401,0.0375,0.0404,0.0341,0.0434,0.0326,0.0346,0.0253,0.0248,0.026,0.0204,0.0205,0.0211,0.0209,0.0207,0.0203,0,0,0,0,0]},{"header":{"parameterUnit":"m.s-1","parameterCategory":2,"la1":30.2991,"la2":30.254,"lo1":-89.0895,"lo2":-89.0444,"dy":0.0017,"dx":0.0017,"nx":28,"ny":28,"refTime":"2025-07-16T09:00:00:Z","depth":"4","parameterNumber":3,"parameterNumberName":"V-component_of_CURRENTS"},"data":[0,0,0,0,0,0,0,0,0,0,0,0,0,0,0,0,0,0,0,0,0,0,0,0,0,0,0,0,0,0,0,0,0,0,0,0,0,0,0,0,0,0,0,0,0,0,0,0,0,0,0,0,0,0,0,0,0,0,0.0258,0.0258,0,0.0219,0.0218,0.0218,0.018,0.018,0.018,0.0179,0.0097,0.0095,0.0093,0,0,0,0,0,0,0,0,0,0,0,0,0,0.0299,0.0298,0.0258,0.0258,0.0258,0.0219,0.0218,0.0218,0.0181,0.018,0.018,0.0179,0.0097,0.0095,0.0093,0,0,0,0,0,0,0,0,0,0,0,0,0,0.0271,0.0298,0.0258,0.0235,0.0233,0.0219,0.0218,0.0218,0.0181,0.018,0.018,0.0179,0.0098,0.0095,0.0092,0.0086,0,0,0.0084,0.0083,0,0,0,0,0,0,0,0,0.0273,0.027,0.0239,0.0237,0.0234,0.0205,0.0202,0.0172,0.0181,0.0199,0.0179,0.0179,0.013,0.0125,0.0117,0.0082,0.0078,0.0084,0.0082,0.0081,0.008,0,0,0,0,0,0,0,0.0275,0.0271,0.0241,0.0239,0.0236,0.0226,0.0222,0.0196,0.0166,0.0197,0.0195,0.0193,0.0128,0.012,0.0115,0.0077,0.0084,0.0081,0.0079,0.0078,-0.003,-0.0031,0,0,0,0,0,0,0.0283,0.0273,0.0243,0.024,0.0254,0.0226,0.0221,0.0214,0.0167,0.0161,0.0193,0.0191,0.0125,0.0118,0.0112,0.0046,0.0081,0.0078,0.0076,-0.0029,-0.003,-0.0032,0,0,0,0,0,0,0.0284,0.028,0.0244,0.0257,0.0252,0.0226,0.0219,0.0214,0.019,0.0165,0.0157,0.0173,0.0124,0.0116,0.0071,0.0045,0.0077,0.0074,-0.0028,-0.0029,-0.0031,-0.005,0,0,0,0,0,0,0.0285,0.0281,0.0275,0.0258,0.0252,0.0223,0.0219,0.0213,0.0191,0.0187,0.0145,0.0138,0.0123,0.0075,0.0068,0.0042,0.0072,-0.0026,-0.0028,-0.0031,-0.0047,-0.0052,-0.0055,0,0,0,0,0,0.0287,0.0279,0.0275,0.0271,0.0245,0.0222,0.0218,0.0197,0.019,0.0175,0.0145,0.0139,0.0056,0.0072,0.0064,0.0036,-0.0025,-0.0028,-0.003,-0.0046,-0.0051,-0.0055,0,0,0,0,0,0,0.0293,0.0274,0.0269,0.0256,0.0236,0.0216,0.0203,0.019,0.0156,0.0149,0.0125,0.0115,0.0063,0.0053,0.0072,-0.0002,0.0014,0.0009,0.0005,-0.0001,-0.0004,-0.0004,0.007,0,0,0,0,0,0.0294,0.0282,0.0263,0.0251,0.0242,0.0221,0.0208,0.0193,0.0165,0.0149,0.0119,0.0086,0.0049,0.0028,-0.0004,-0.0041,-0.0045,-0.0065,-0.0069,-0.0072,-0.0078,-0.0107,-0.0114,-0.0041,-0.0041,-0.004,0,0,0.0295,0.0282,0.0276,0.0252,0.0236,0.0214,0.0211,0.0186,0.016,0.0146,0.0095,0.0068,0.0035,-0.0011,-0.0035,-0.0024,-0.0094,-0.0076,-0.0078,-0.0082,-0.011,-0.0117,-0.0123,-0.0042,-0.0042,-0.0042,0,0,0.0293,0.0278,0.0268,0.0247,0.0221,0.0204,0.0194,0.0163,0.0139,0.0095,0.0073,0.0029,-0.0019,-0.0052,-0.0073,-0.0118,-0.0116,-0.0127,-0.0146,-0.0174,-0.018,-0.0186,-0.0191,-0.0197,-0.0127,-0.0127,-0.0127,0,0.0296,0.0279,0.0261,0.0242,0.0221,0.0197,0.0174,0.0147,0.0102,0.0076,0.0074,-0.0015,-0.0042,-0.0103,-0.0119,-0.0129,-0.0132,-0.0123,-0.0179,-0.0184,-0.0189,-0.0194,-0.02,-0.0128,-0.0128,-0.0128,-0.0128,0,0.0286,0.0266,0.0256,0.0222,0.0195,0.0171,0.0133,0.0099,0.007,0.0041,-0.0027,-0.0064,-0.0112,-0.0133,-0.014,-0.0196,-0.0181,-0.0181,-0.0162,-0.0198,-0.02,-0.0206,-0.013,-0.0129,-0.0129,-0.0129,0,0,0.0304,0.026,0.0256,0.0234,0.0181,0.0158,0.0108,0.0056,0.0021,-0.0028,-0.0078,-0.0143,-0.0157,-0.0181,-0.02,-0.023,-0.0266,-0.0218,-0.0219,-0.0216,-0.031,-0.0285,-0.0289,-0.027,-0.0272,-0.0273,-0.0293,0,0.0301,0.0273,0.0242,0.0197,0.0174,0.0126,0.0081,0.0027,-0.0018,-0.0073,-0.0123,-0.0169,-0.0176,-0.0193,-0.023,-0.0265,-0.0284,-0.026,-0.0283,-0.0284,-0.0252,-0.0297,-0.0277,-0.0297,-0.0299,-0.03,-0.03,0,0.0299,0.0277,0.0248,0.0181,0.0166,0.0137,0.0059,0.0017,-0.0063,-0.0096,-0.0152,-0.0186,-0.0248,-0.0237,-0.0311,-0.0292,-0.0299,-0.0319,-0.032,-0.0296,-0.0271,-0.0259,-0.0311,-0.031,-0.0309,-0.0308,-0.0308,0,0.0325,0.0273,0.0252,0.0231,0.016,0.0134,0.0095,0.0017,-0.0017,-0.0096,-0.0126,-0.0208,-0.0239,-0.0282,-0.032,-0.0314,-0.0388,-0.0383,-0.0366,-0.0363,-0.0367,-0.0362,-0.0421,-0.0421,-0.0421,-0.0421,-0.0421,0,0.032,0.03,0.027,0.0256,0.022,0.0162,0.012,0.0065,-0.0,-0.0047,-0.0118,-0.0172,-0.025,-0.0303,-0.0331,-0.0369,-0.0392,-0.038,-0.0376,-0.0373,-0.0368,-0.0371,-0.0365,-0.0421,-0.0421,-0.0421,-0.0421,0,0.033,0.0318,0.0294,0.0246,0.0236,0.0211,0.0161,0.0124,0.0065,0.0004,-0.0014,-0.0138,-0.0215,-0.0277,-0.0354,-0.0372,-0.0414,-0.041,-0.0393,-0.0386,-0.0365,-0.036,-0.0409,-0.0408,-0.0408,-0.0408,-0.0407,0,0.0319,0.0322,0.0308,0.0306,0.0287,0.0259,0.0236,0.0172,0.0135,0.0018,-0.0017,-0.0109,-0.0185,-0.0284,-0.0351,-0.04,-0.0396,-0.0408,-0.0404,-0.0377,-0.0369,-0.0364,-0.036,-0.0407,-0.0406,-0.0406,-0.0406,0,0.0297,0.032,0.03,0.0324,0.0315,0.0286,0.0252,0.0221,0.0132,0.0106,-0.0016,-0.0098,-0.019,-0.0285,-0.0312,-0.0352,-0.0409,-0.0404,-0.0405,-0.0402,-0.0375,-0.0366,-0.0362,-0.0405,-0.0405,-0.0405,-0.0405,0,0.0283,0.028,0.0298,0.0311,0.033,0.0296,0.0258,0.0198,0.0154,0.0039,0.0002,-0.0117,-0.0179,-0.0259,-0.03,-0.0327,-0.0334,-0.0338,-0.0342,-0.0344,-0.0321,-0.0277,-0.0285,0,0,0,0,0,0.0257,0.027,0.028,0.0279,0.0316,0.0332,0.0265,0.0215,0.0148,0.0081,0.0043,-0.004,-0.0149,-0.0224,-0.0244,-0.0292,-0.0339,-0.0317,-0.0345,-0.0397,-0.0399,-0.038,0,0,0,0,0,0,0.0231,0.0253,0.0267,0.0288,0.0312,0.0311,0.0277,0.0203,0.0152,0.009,0.003,0.0007,-0.0099,-0.0091,-0.0213,-0.0231,-0.0247,-0.036,-0.0361,-0.0396,-0.0398,-0.0399,-0.038,0,0,0,0,0]}]]